When you browse on this site, cookies collect data to enhance your experience and personalize the content and advertising you see.
Visit our Privacy Policy to learn more. By continuing to use the site, you agree to this use of cookies and data.
  • In Slovakia
  • List of Countries
  • For 7 days
  • Water Temperature
  • Satellite Maps
  • Weather Map
  • Weather Widgets
  • user-avatar
    Login

    Hourly Weather Byala

    Today, 23 January, Wednesday

    Time Temperature Precipitation Wind Pressure Humidity
    00:00 +4°C° 0 mm 6 mps 748 mmHg 90%
    01:00 +4°C° 0 mm 6 mps 747 mmHg 92%
    02:00 +4°C° 0 mm 7 mps 746 mmHg 93%
    03:00 +4°C° 1 mm 6 mps 746 mmHg 94%
    04:00 +4°C° 1 mm 6 mps 745 mmHg 95%
    05:00 +4°C° 1 mm 6 mps 744 mmHg 95%
    06:00 +5°C° 0.8 mm 6 mps 744 mmHg 93%
    07:00 +5°C° 0.8 mm 6 mps 744 mmHg 91%
    08:00 +7°C° 0.8 mm 6 mps 743 mmHg 89%
    09:00 +8°C° 0 mm 7 mps 743 mmHg 85%
    10:00 +9°C° 0 mm 7 mps 743 mmHg 81%
    11:00 +10°C° 0 mm 8 mps 744 mmHg 77%
    12:00 +11°C° 0 mm 7 mps 743 mmHg 74%
    13:00 +12°C° 0 mm 7 mps 743 mmHg 71%
    14:00 +13°C° 0 mm 6 mps 742 mmHg 68%
    15:00 +13°C° 0 mm 6 mps 742 mmHg 71%
    16:00 +11°C° 0 mm 6 mps 742 mmHg 75%
    17:00 +10°C° 0 mm 6 mps 742 mmHg 78%
    18:00 +10°C° 0 mm 6 mps 742 mmHg 81%
    19:00 +9°C° 0 mm 6 mps 742 mmHg 84%
    20:00 +9°C° 0 mm 6 mps 742 mmHg 87%
    21:00 +8°C° 0 mm 6 mps 742 mmHg 87%
    22:00 +8°C° 0 mm 6 mps 742 mmHg 87%
    23:00 +8°C° 0 mm 7 mps 742 mmHg 87%

    Tomorrow, 24 January, Thursday

    Time Temperature Precipitation Wind Pressure Humidity
    00:00 +8°C° 0.2 mm 6 mps 742 mmHg 89%
    01:00 +8°C° 0.2 mm 6 mps 741 mmHg 90%
    02:00 +8°C° 0.2 mm 6 mps 741 mmHg 92%
    03:00 +8°C° 0.1 mm 6 mps 740 mmHg 93%
    04:00 +7°C° 0.1 mm 6 mps 740 mmHg 94%
    05:00 +7°C° 0.1 mm 6 mps 739 mmHg 94%
    06:00 +7°C° 0.1 mm 6 mps 739 mmHg 93%
    07:00 +7°C° 0.1 mm 6 mps 739 mmHg 91%
    08:00 +8°C° 0.1 mm 7 mps 739 mmHg 90%
    09:00 +7°C° 1.6 mm 6 mps 739 mmHg 90%
    10:00 +7°C° 1.6 mm 6 mps 738 mmHg 91%
    11:00 +7°C° 1.6 mm 6 mps 738 mmHg 92%
    12:00 +7°C° 1.7 mm 5 mps 738 mmHg 93%
    13:00 +7°C° 1.7 mm 5 mps 737 mmHg 93%
    14:00 +7°C° 1.7 mm 4 mps 737 mmHg 93%
    15:00 +7°C° 0.1 mm 4 mps 737 mmHg 91%
    16:00 +7°C° 0.1 mm 4 mps 736 mmHg 90%
    17:00 +7°C° 0.1 mm 4 mps 736 mmHg 88%
    18:00 +8°C° 0 mm 4 mps 736 mmHg 87%
    19:00 +8°C° 0 mm 4 mps 737 mmHg 85%
    20:00 +8°C° 0 mm 4 mps 737 mmHg 84%
    21:00 +8°C° 0 mm 5 mps 737 mmHg 85%
    22:00 +7°C° 0 mm 5 mps 738 mmHg 86%
    23:00 +7°C° 0 mm 5 mps 738 mmHg 87%

    Day after tomorrow, 25 January, Friday

    Time Temperature Precipitation Wind Pressure Humidity
    00:00 +7°C° 0 mm 5 mps 738 mmHg 87%
    01:00 +7°C° 0 mm 5 mps 739 mmHg 88%
    02:00 +7°C° 0 mm 5 mps 739 mmHg 88%
    03:00 +7°C° 0 mm 5 mps 739 mmHg 89%
    04:00 +7°C° 0 mm 5 mps 739 mmHg 89%
    05:00 +7°C° 0 mm 5 mps 739 mmHg 89%
    06:00 +7°C° 0.1 mm 5 mps 739 mmHg 88%
    07:00 +7°C° 0.1 mm 5 mps 739 mmHg 87%
    08:00 +7°C° 0.1 mm 6 mps 739 mmHg 86%
    09:00 +7°C° 1.5 mm 6 mps 739 mmHg 86%
    10:00 +6°C° 1.5 mm 7 mps 739 mmHg 87%
    11:00 +8°C° 1.5 mm 7 mps 740 mmHg 87%
    12:00 +8°C° 0.1 mm 7 mps 739 mmHg 85%
    13:00 +9°C° 0.1 mm 7 mps 739 mmHg 83%
    14:00 +9°C° 0.1 mm 7 mps 739 mmHg 80%
    15:00 +9°C° 0.2 mm 7 mps 739 mmHg 82%
    16:00 +8°C° 0.2 mm 7 mps 739 mmHg 84%
    17:00 +8°C° 0.2 mm 6 mps 739 mmHg 85%
    18:00 +8°C° 0.2 mm 7 mps 739 mmHg 85%
    19:00 +8°C° 0.2 mm 7 mps 739 mmHg 85%
    20:00 +9°C° 0.2 mm 7 mps 739 mmHg 86%
    21:00 +9°C° 0.4 mm 8 mps 739 mmHg 86%
    22:00 +9°C° 0.4 mm 8 mps 738 mmHg 85%
    23:00 +8°C° 0.4 mm 9 mps 738 mmHg 85%

    26 January, Saturday

    Time Temperature Precipitation Wind Pressure Humidity
    00:00 +8°C° 0.5 mm 9 mps 738 mmHg 85%
    01:00 +9°C° 0.5 mm 8 mps 738 mmHg 85%
    02:00 +9°C° 0.5 mm 8 mps 738 mmHg 85%
    03:00 +7°C° 0.1 mm 8 mps 738 mmHg 86%
    04:00 +8°C° 0.1 mm 7 mps 738 mmHg 87%
    05:00 +8°C° 0.1 mm 6 mps 737 mmHg 88%
    06:00 +8°C° 0 mm 5 mps 738 mmHg 89%
    07:00 +7°C° 0 mm 4 mps 738 mmHg 90%
    08:00 +8°C° 0 mm 3 mps 738 mmHg 91%
    09:00 +9°C° 0 mm 3 mps 738 mmHg 88%
    10:00 +9°C° 0 mm 2 mps 739 mmHg 85%
    11:00 +10°C° 0 mm 2 mps 739 mmHg 82%
    12:00 +10°C° 0 mm 3 mps 739 mmHg 82%
    13:00 +10°C° 0 mm 3 mps 739 mmHg 81%
    14:00 +10°C° 0 mm 3 mps 739 mmHg 81%
    15:00 +10°C° 0 mm 4 mps 739 mmHg 83%
    16:00 +8°C° 0 mm 4 mps 739 mmHg 84%
    17:00 +8°C° 0 mm 5 mps 740 mmHg 85%
    18:00 +7°C° 0 mm 6 mps 740 mmHg 88%
    19:00 +7°C° 0 mm 6 mps 740 mmHg 90%
    20:00 +5°C° 0 mm 7 mps 741 mmHg 93%
    21:00 +5°C° 0.3 mm 7 mps 741 mmHg 93%
    22:00 +5°C° 0.3 mm 7 mps 742 mmHg 92%
    23:00 +5°C° 0.3 mm 7 mps 742 mmHg 92%

    27 January, Sunday

    Time Temperature Precipitation Wind Pressure Humidity
    00:00 +5°C° 0.1 mm 7 mps 742 mmHg 92%
    01:00 +5°C° 0.1 mm 7 mps 742 mmHg 92%
    02:00 +5°C° 0.1 mm 7 mps 742 mmHg 92%
    03:00 +4°C° 0.1 mm 7 mps 742 mmHg 92%
    04:00 +4°C° 0.1 mm 7 mps 742 mmHg 92%
    05:00 +4°C° 0.1 mm 7 mps 742 mmHg 91%
    06:00 +4°C° 0.1 mm 7 mps 742 mmHg 91%
    07:00 +4°C° 0.1 mm 7 mps 743 mmHg 91%
    08:00 +4°C° 0.1 mm 7 mps 743 mmHg 90%
    09:00 +4°C° 0 mm 7 mps 743 mmHg 90%
    10:00 +4°C° 0 mm 7 mps 743 mmHg 89%
    11:00 +4°C° 0 mm 7 mps 744 mmHg 88%
    12:00 +4°C° 0.1 mm 7 mps 744 mmHg 88%
    13:00 +4°C° 0.1 mm 7 mps 743 mmHg 87%
    14:00 +3°C° 0.1 mm 7 mps 743 mmHg 86%
    15:00 +2°C° 0.1 mm 8 mps 744 mmHg 86%
    16:00 +2°C° 0.1 mm 8 mps 744 mmHg 86%
    17:00 +2°C° 0.1 mm 8 mps 744 mmHg 86%
    18:00 +2°C° 0.1 mm 8 mps 744 mmHg 86%
    19:00 +1°C° 0.1 mm 8 mps 745 mmHg 87%
    20:00 +1°C° 0.1 mm 8 mps 745 mmHg 87%
    21:00 +1°C° 0.3 mm 8 mps 745 mmHg 87%
    22:00 +1°C° 0.3 mm 8 mps 745 mmHg 88%
    23:00 0°C° 0.3 mm 8 mps 746 mmHg 88%

    28 January, Monday

    Time Temperature Precipitation Wind Pressure Humidity
    00:00 0°C° 0.3 mm 8 mps 746 mmHg 87%
    01:00 0°C° 0.3 mm 7 mps 746 mmHg 87%
    02:00 0°C° 0.3 mm 7 mps 746 mmHg 87%
    03:00 0°C° 0.2 mm 7 mps 746 mmHg 87%
    04:00 0°C° 0.2 mm 8 mps 747 mmHg 87%
    05:00 0°C° 0.2 mm 8 mps 747 mmHg 87%
    06:00 0°C° 0.2 mm 8 mps 747 mmHg 87%
    07:00 0°C° 0.2 mm 8 mps 748 mmHg 87%
    08:00 0°C° 0.2 mm 8 mps 748 mmHg 87%
    09:00 +1°C° 0.1 mm 8 mps 749 mmHg 87%
    10:00 +1°C° 0.1 mm 8 mps 750 mmHg 86%
    11:00 +1°C° 0.1 mm 8 mps 750 mmHg 85%
    12:00 +1°C° 0.1 mm 8 mps 750 mmHg 84%
    13:00 +1°C° 0.1 mm 8 mps 751 mmHg 83%
    14:00 +1°C° 0.1 mm 8 mps 751 mmHg 82%
    15:00 +1°C° 0 mm 8 mps 752 mmHg 83%
    16:00 +1°C° 0 mm 8 mps 752 mmHg 84%
    17:00 0°C° 0 mm 8 mps 753 mmHg 85%
    18:00 0°C° 0.1 mm 8 mps 754 mmHg 85%
    19:00 0°C° 0.1 mm 8 mps 754 mmHg 85%
    20:00 0°C° 0.1 mm 8 mps 755 mmHg 85%
    21:00 0°C° 0.1 mm 8 mps 756 mmHg 86%
    22:00 0°C° 0.1 mm 7 mps 756 mmHg 86%
    23:00 0°C° 0.1 mm 7 mps 757 mmHg 86%
    Show more